DO7AX-13 Weather Reports


time (UTC)temp
F
wind
direction
speed
knots
gust
knots
rain 1hr
in
rain 24hr
in
rain mn
in
humidity
%
barometer
mb
20260506080729 52 7 4.3 10.4 0.00 0.00 0.00 67 1005.8
20260506073230 51 63 5.2 11.3 0.00 0.01 0.00 65 1005.7
20260506072230 51 10 7.0 10.4 0.00 0.01 0.00 65 1005.8
20260506071728 51 34 5.2 10.4 0.00 0.01 0.00 65 1005.8
20260506071228 51 52 5.2 10.4 0.00 0.02 0.00 66 1005.8
20260506070728 51 35 5.2 11.3 0.00 0.02 0.00 65 1005.8
20260506070229 51 94 5.2 13.0 0.00 0.02 0.00 65 1005.8
20260506062228 51 79 6.1 9.6 0.00 0.02 0.00 64 1005.8
20260506061729 51 42 2.6 10.4 0.00 0.03 0.00 66 1005.8
20260506061229 51 61 3.5 11.3 0.00 0.03 0.00 66 1005.8
20260506060729 50 30 4.3 11.3 0.00 0.04 0.00 64 1005.8
20260506051229 49 38 5.2 10.4 0.00 0.06 0.00 67 1006.0
20260506050728 49 27 3.5 10.4 0.00 0.06 0.00 67 1005.9
20260506050228 49 61 6.1 10.4 0.00 0.06 0.00 66 1006.0
20260506044728 49 52 5.2 10.4 0.00 0.07 0.00 68 1006.1
20260506043728 49 41 4.3 9.6 0.00 0.08 0.00 69 1006.0
20260506043227 49 75 3.5 9.6 0.00 0.09 0.00 69 1006.0
20260506042726 49 10 3.5 9.6 0.00 0.09 0.00 70 1006.0
20260506042227 49 38 2.6 10.4 0.00 0.10 0.00 70 1006.0
20260506041727 49 38 4.3 10.4 0.00 0.10 0.00 70 1005.9
20260506041228 48 41 6.1 8.7 0.00 0.10 0.00 71 1006.0
20260506040726 48 1 3.5 9.6 0.00 0.10 0.00 72 1005.9
20260506040226 48 51 3.5 9.6 0.00 0.10 0.00 72 1006.0
20260506035226 48 55 4.3 9.6 0.00 0.10 0.00 73 1005.9
20260506034726 48 66 5.2 9.6 0.00 0.10 0.00 73 1005.9
20260506034226 48 61 4.3 8.7 0.00 0.10 0.00 74 1006.0
20260506033727 48 34 3.5 7.8 0.00 0.10 0.00 75 1005.9
20260506033226 48 38 2.6 6.1 0.00 0.10 0.00 74 1006.0
20260506032725 48 83 3.5 6.1 0.00 0.10 0.00 75 1006.0
20260506031724 48 30 3.5 8.7 0.00 0.10 0.00 75 1006.1
20260506031227 48 25 2.6 5.2 0.00 0.10 0.00 75 1006.1
20260506030223 48 358 2.6 6.1 0.00 0.10 0.00 75 1006.2
20260506025724 48 58 1.7 8.7 0.00 0.10 0.00 76 1006.2
20260506025224 48 48 4.3 8.7 0.00 0.10 0.00 76 1006.1
20260506024724 48 0 3.5 6.1 0.00 0.10 0.00 75 1006.1
20260506024223 48 18 3.5 6.1 0.00 0.10 0.00 75 1006.2
20260506023724 48 24 2.6 6.1 0.00 0.10 0.00 75 1006.2
20260506023226 48 350 1.7 6.1 0.00 0.10 0.00 75 1006.3
20260506022723 48 56 3.5 6.1 0.00 0.10 0.00 75 1006.4
20260506021722 48 58 5.2 10.4 0.00 0.10 0.00 74 1006.4
20260506021224 48 20 4.3 8.7 0.00 0.10 0.00 75 1006.4
20260506020724 48 69 3.5 8.7 0.00 0.10 0.00 74 1006.5
20260506020223 47 66 4.3 7.8 0.00 0.10 0.00 75 1006.6
20260506014222 47 31 3.5 7.8 0.00 0.10 0.00 74 1006.5
20260506013722 47 17 3.5 5.2 0.00 0.10 0.00 73 1006.6
20260506012722 48 39 1.7 5.2 0.00 0.10 0.00 72 1006.7
20260506012223 48 59 1.7 5.2 0.00 0.10 0.00 72 1006.8
20260506011722 48 54 1.7 7.8 0.00 0.10 0.00 71 1006.9
20260506011222 48 63 3.5 7.8 0.00 0.10 0.00 71 1006.9
20260506005720 48 52 5.2 9.6 0.00 0.10 0.00 70 1006.8
20260506005220 48 21 5.2 9.6 0.00 0.10 0.00 71 1006.8
20260506004721 48 47 5.2 7.8 0.00 0.10 0.00 71 1006.8
20260506003720 47 38 3.5 7.8 0.00 0.10 0.00 72 1007.0
20260506003222 47 16 3.5 7.8 0.00 0.10 0.00 72 1006.9
20260506002721 47 52 2.6 7.8 0.00 0.10 0.00 72 1007.1
20260506002218 47 35 3.5 7.8 0.00 0.10 0.00 73 1007.1
20260506001719 47 20 3.5 9.6 0.00 0.10 0.00 73 1007.1
20260506001220 47 11 3.5 9.6 0.00 0.10 0.00 73 1007.1
20260506000719 47 28 3.5 4.3 0.00 0.10 0.00 74 1007.1
20260506000219 47 11 3.5 5.2 0.00 0.10 0.00 75 1007.2
20260505235220 47 10 2.6 5.2 0.00 0.10 0.00 75 1007.2
20260505234718 47 14 2.6 5.2 0.00 0.10 0.00 75 1007.3
20260505234218 47 16 2.6 5.2 0.00 0.10 0.00 76 1007.3
20260505233719 47 55 2.6 5.2 0.00 0.10 0.00 76 1007.4
20260505233217 47 54 2.6 5.2 0.00 0.10 0.00 77 1007.4
20260505232718 47 61 1.7 5.2 0.00 0.10 0.00 77 1007.4
20260505232218 47 18 3.5 4.3 0.00 0.10 0.00 77 1007.4
20260505231720 47 47 2.6 4.3 0.00 0.10 0.00 78 1007.3
20260505231218 47 55 0.9 3.5 0.00 0.10 0.00 77 1007.4
20260505230717 48 48 0.9 3.5 0.00 0.10 0.00 77 1007.4
20260505225717 48 31 1.7 4.3 0.00 0.10 0.00 76 1007.4
20260505225216 48 54 2.6 6.1 0.00 0.10 0.00 76 1007.4
20260505224716 48 62 3.5 6.1 0.00 0.10 0.00 76 1007.5
20260505224218 48 76 2.6 5.2 0.00 0.10 0.00 77 1007.6
20260505223717 48 83 3.5 5.2 0.00 0.10 0.00 77 1007.6
20260505223226 48 92 1.7 6.1 0.00 0.10 0.00 77 1007.6
20260505222717 48 38 2.6 6.1 0.00 0.10 0.00 77 1007.7
20260505222217 48 73 2.6 4.3 0.00 0.10 0.00 78 1007.8
20260505221739 49 78 1.7 6.1 0.00 0.10 0.00 78 1007.9
20260505221615 49 59 2.6 6.1 0.00 0.10 0.00 78 1007.8
20260505220714 49 54 2.6 7.8 0.00 0.10 0.00 77 1007.9
20260505214802 49 42 3.5 10.4 0.00 0.10 0.10 77 1008.0
20260505214258 50 37 1.7 10.4 0.00 0.10 0.10 77 1007.9
20260505213810 50 35 2.6 8.7 0.00 0.10 0.10 78 1007.9
20260505213311 50 51 4.3 8.7 0.00 0.10 0.10 77 1007.9
20260505212809 50 72 3.5 9.6 0.00 0.10 0.10 77 1007.9
20260505212309 50 27 4.3 9.6 0.00 0.10 0.10 77 1007.9
20260505211817 50 86 3.5 7.8 0.00 0.10 0.10 77 1007.8
20260505211241 50 24 3.5 9.6 0.00 0.10 0.10 78 1007.7
20260505210751 50 20 2.6 9.6 0.00 0.10 0.10 77 1007.9
20260505210244 51 16 5.2 9.6 0.00 0.10 0.10 77 1007.9
20260505205752 51 48 4.3 9.6 0.00 0.10 0.10 76 1008.0
20260505205251 51 34 5.2 10.4 0.00 0.10 0.10 76 1008.1
20260505204804 51 27 4.3 11.3 0.00 0.10 0.10 76 1008.0
20260505204227 51 52 5.2 11.3 0.00 0.10 0.10 75 1007.9
20260505203733 51 59 7.0 12.2 0.00 0.10 0.10 75 1007.9
20260505203220 51 58 6.1 12.2 0.00 0.10 0.10 74 1007.9
20260505202727 51 30 6.1 12.2 0.00 0.10 0.10 74 1007.9
20260505202212 51 23 5.2 12.2 0.00 0.10 0.10 74 1007.8
20260505201712 51 38 6.1 9.6 0.00 0.10 0.10 74 1007.8
20260505201212 51 45 4.3 9.6 0.00 0.10 0.10 74 1007.8
20260505200712 51 30 6.1 10.4 0.00 0.10 0.10 73 1007.7
20260505200211 51 23 5.2 10.4 0.00 0.10 0.10 73 1007.6
20260505195710 51 6 6.1 11.3 0.00 0.10 0.10 73 1007.7
20260505195210 51 24 6.1 11.3 0.00 0.10 0.10 73 1007.7
20260505194711 51 23 3.5 7.8 0.00 0.10 0.10 76 1007.6
20260505194211 52 6 3.5 6.1 0.00 0.10 0.10 76 1007.6
20260505193712 52 30 4.3 7.8 0.00 0.10 0.10 75 1007.7
20260505193211 52 0 3.5 7.8 0.00 0.10 0.10 75 1007.6
20260505191712 52 13 3.5 7.8 0.00 0.10 0.10 75 1007.6
20260505191209 52 23 3.5 7.8 0.00 0.10 0.10 75 1007.6
20260505190709 52 13 2.6 7.8 0.00 0.10 0.10 75 1007.6
20260505190212 53 357 2.6 8.7 0.00 0.10 0.10 74 1007.6
20260505185710 53 0 3.5 8.7 0.00 0.10 0.10 74 1007.5
20260505185210 53 13 3.5 6.1 0.00 0.10 0.10 74 1007.6
20260505184710 53 0 2.6 6.1 0.00 0.10 0.10 74 1007.7
20260505184210 54 21 2.6 6.1 0.00 0.10 0.10 74 1007.6
20260505183709 54 3 3.5 9.6 0.00 0.10 0.10 71 1007.6
20260505183208 54 13 5.2 11.3 0.00 0.10 0.10 67 1007.6
20260505182209 55 41 6.1 12.2 0.00 0.10 0.10 66 1007.6
20260505181710 55 55 5.2 9.6 0.00 0.10 0.10 65 1007.6
20260505181209 55 20 5.2 10.4 0.00 0.10 0.10 65 1007.7
20260505180208 56 48 5.2 10.4 0.00 0.10 0.10 65 1007.6
20260505175709 56 21 4.3 10.4 0.00 0.10 0.10 64 1007.6
20260505174708 57 31 5.2 10.4 0.00 0.10 0.10 62 1007.5
20260505174208 57 31 5.2 10.4 0.00 0.10 0.10 62 1007.6
20260505173709 57 21 5.2 9.6 0.00 0.10 0.10 62 1007.6
20260505173208 58 16 6.1 9.6 0.00 0.10 0.10 63 1007.7
20260505172708 58 28 4.3 10.4 0.00 0.10 0.10 63 1007.7
20260505172207 58 23 6.1 10.4 0.00 0.10 0.10 63 1007.7
20260505171707 58 39 4.3 10.4 0.00 0.10 0.10 63 1007.7
20260505171207 58 1 3.5 10.4 0.00 0.10 0.10 62 1007.6
20260505170706 59 24 5.2 10.4 0.00 0.10 0.10 61 1007.6
20260505170207 59 6 5.2 8.7 0.00 0.10 0.10 61 1007.6
20260505165207 60 11 3.5 6.1 0.00 0.10 0.10 62 1007.7
20260505164706 60 23 4.3 8.7 0.00 0.10 0.10 61 1007.7
20260505164206 60 30 3.5 8.7 0.00 0.10 0.10 61 1007.8
20260505163706 60 37 3.5 11.3 0.00 0.10 0.10 61 1007.8
20260505163206 60 8 5.2 11.3 0.00 0.10 0.10 61 1007.8
20260505162705 60 47 4.3 9.6 0.00 0.10 0.10 60 1007.9
20260505162208 60 37 5.2 8.7 0.00 0.10 0.10 61 1007.9
20260505161205 59 11 5.2 9.6 0.00 0.10 0.10 60 1007.8
20260505160705 60 47 5.2 9.6 0.00 0.10 0.10 61 1008.0
20260505160205 59 45 4.3 8.7 0.00 0.10 0.10 62 1008.0
20260505153204 58 75 1.7 7.8 0.00 0.10 0.10 66 1008.1
20260505152704 58 45 4.3 6.1 0.00 0.10 0.10 69 1008.1
20260505152204 58 116 3.5 6.1 0.00 0.10 0.10 68 1008.0
20260505151704 57 23 4.3 7.8 0.00 0.10 0.10 69 1008.1
20260505151204 57 21 2.6 7.8 0.00 0.10 0.10 69 1008.0
20260505150205 57 86 3.5 8.7 0.00 0.10 0.10 69 1008.1
20260505140200 57 8 3.5 9.6 0.00 0.10 0.10 72 1008.4
20260505130159 56 59 3.5 7.8 0.00 0.10 0.10 77 1008.6
20260505124659 55 51 3.5 7.8 0.00 0.10 0.10 75 1008.7
20260505124158 55 39 3.5 8.7 0.00 0.10 0.10 76 1008.7
20260505123701 55 39 4.3 8.7 0.00 0.10 0.10 76 1008.8
20260505123200 55 27 3.5 8.7 0.00 0.10 0.10 77 1008.8
20260505122657 55 52 3.5 8.7 0.00 0.10 0.10 75 1008.9
20260505122159 55 31 4.3 7.8 0.00 0.10 0.10 76 1008.9
20260505121658 55 66 3.5 8.7 0.00 0.10 0.10 78 1008.9
20260505121158 55 41 5.2 8.7 0.00 0.10 0.10 77 1008.9
20260505120657 55 16 4.3 9.6 0.00 0.10 0.10 78 1008.8
20260505115659 55 39 4.3 6.1 0.00 0.10 0.10 78 1009.0
20260505115158 54 38 4.3 6.1 0.00 0.10 0.10 79 1008.9
20260505114658 54 16 2.6 10.4 0.00 0.10 0.10 79 1009.0
20260505114205 54 16 6.1 10.4 0.00 0.10 0.10 77 1008.9
20260505113657 54 28 5.2 11.3 0.00 0.10 0.10 79 1009.0
20260505113157 54 20 6.1 11.3 0.00 0.10 0.10 78 1009.0
20260505112656 54 11 3.5 6.1 0.00 0.10 0.10 79 1009.0
20260505112157 54 65 5.2 9.6 0.00 0.10 0.10 79 1009.0
20260505111657 54 24 6.1 9.6 0.00 0.10 0.10 79 1009.0
20260505111205 54 31 3.5 9.6 0.00 0.10 0.10 80 1009.0
20260505110657 54 28 6.1 9.6 0.00 0.10 0.10 79 1009.1
20260505110157 53 55 5.2 8.7 0.00 0.10 0.10 82 1009.1
20260505102154 52 39 3.5 8.7 0.00 0.10 0.10 84 1009.2
20260505101654 52 32 3.5 9.6 0.00 0.10 0.10 83 1009.2
20260505101155 51 6 4.3 9.6 0.00 0.10 0.10 85 1009.3
20260505100154 51 28 5.2 9.6 0.00 0.10 0.10 86 1009.1
20260505095654 51 3 3.5 9.6 0.00 0.10 0.10 86 1009.2
20260505094652 51 39 5.2 9.6 0.00 0.10 0.10 87 1009.3
20260505094153 51 32 4.3 10.4 0.00 0.10 0.10 88 1009.2
20260505093654 51 30 5.2 10.4 0.00 0.10 0.10 87 1009.2
20260505092724 51 44 5.2 9.6 0.00 0.10 0.10 87 1009.2
20260505092153 51 44 5.2 9.6 0.00 0.10 0.10 87 1009.2
20260505091653 51 31 5.2 9.6 0.00 0.10 0.10 89 1009.1
20260505091153 51 39 6.1 9.6 0.00 0.10 0.10 90 1009.2
20260505090652 51 18 5.2 9.6 0.00 0.10 0.10 90 1009.1
20260505090152 51 6 5.2 10.4 0.00 0.10 0.10 90 1009.1
20260505085652 51 11 5.2 10.4 0.00 0.10 0.10 91 1009.0
20260505085153 51 30 5.2 10.4 0.01 0.10 0.10 91 1009.1
20260505084652 51 4 4.3 9.6 0.01 0.10 0.10 91 1009.1
20260505084152 50 37 5.2 9.6 0.01 0.10 0.10 91 1009.1
20260505083652 50 37 4.3 9.6 0.01 0.10 0.10 91 1009.2
20260505083152 50 0 3.5 9.6 0.01 0.10 0.10 91 1009.1
20260505082650 50 10 3.5 8.7 0.01 0.10 0.10 91 1009.1
20260505082151 50 39 5.2 8.7 0.01 0.10 0.10 92 1009.1
20260505081652 50 30 4.3 7.8 0.01 0.10 0.10 92 1009.0
20260505081151 50 51 3.5 8.7 0.02 0.10 0.10 92 1009.0